Погода Новоанненский

Погода Новоанненский : погода сейчас, прогноз погоды и архив. Всё, что Вы хотите узнать о погоде Новоанненский!

Поиск расширенной информации на нашем сайте:

Другие новости

Новости СМИ2

Главная страница сайта

Новости сайта

03.07.2017

Напоминаем, что на нашем специализированном сайте Метеоцентр.Азия вы можете получить высокодетализированные автоматические прогнозы погоды по пунктам России, СНГ и мира в авиационном формате (включающие направление и скорость ветра, видимость, явления погоды, количество и форму облачности, нижнюю и верхнюю границу облачности).


Погода Новоанненский - сегодня

Время (UTC), дата Ветер
(°,м/с) 
Видим.   Явления Облачность Т
(°С)
Тd
(°С)
f(%) Тe
(°С)
Pmin
(гПа)
dP
(гПа)
Po
(мм)
O2
(г/м3)
Тmin Tmax R s Состояние
почвы
06 15.04.18 320 (СЗ) 20000 м    3/0 верхняя 
[Ci fib]
+9.3 -3.8 39 +9  1030  -0.3  764  298           
09 15.04.18 280 (З) 20000 м    3/3 1000 м 
[Cu hum]
+11.7 -4.9 31 +12  1028.9  -1  763  295           
12 15.04.18 250 (З) 20000 м    4/3 1000 м верхняя 
[Cu med, cong|Ci fib]
+13.8 -4.4 28 +14  1026.6  -2.2  761  292           
15 15.04.18 280 (З) 20000 м    ясно 
+13.7 -4.5 28 +14  1024.5  -2  760  292    +14.6       
18 15.04.18 180 (Ю) 20000 м    ясно 
+7.6 -3.2 46 +8  1024.9  -0.1  760  298           
21 15.04.18 180 (Ю) 20000 м    ясно 
+4.8 -3.4 55 +6  1024.4  -0.6  759  301           
00 16.04.18 180 (Ю) 20000 м    ясно 
+4 -4.1 55 +4  1023.3  -1.1  758  302           
06 16.04.18 270 (З) 20000 м    4/0 верхняя 
[Ci fib]
+10.7 -2 41 +11  1021.5  -0.4  757  294           
09 16.04.18 290 (З) 20000 м    4/0 верхняя 
[Ci fib]
+16.9 -2.3 27 +18  1020.5  -0.7  757  287           
12 16.04.18 300 (СЗ) 20000 м    ясно 
+18.4 -3.9 22 +19  1019.6  -0.9  756  286           
15 16.04.18 360 (С) 20000 м    ясно 
+16.9 -3.7 24 +18  1019  -0.6  756  287    +18.7       
18 16.04.18 тихо ()   20000 м    3/0 верхняя 
[Ci fib]
+8.4 -0.5 53 +8  1020.4  756  296           
00 17.04.18 170 (Ю) 20000 м    6/0 верхняя 
[Ci]
+5.9 -1.5 59 +7  1020  -0.3  756  298           
06 17.04.18 250 (З) 20000 м    6/4 600 м верхняя 
[Cu hum|Ci fib]
+14.9 +2.1 42 +16  1019.6  756  289           
09 17.04.18 270 (З) 20000 м    8/6 600 м верхняя 
[Cu med, cong|Ci]
+20.2 +3.2 32 +20  1018.9  -0.6  756  283           
12 17.04.18 260 (З) 20000 м    8/8 600 м 
[Cu med, cong]
+20.3 +4.1 34 +20  1018.4  -0.5  755  283           
18 17.04.18 180 (Ю) 20000 м    8/6 600 м верхняя 
[Sc diur, vesp|Ci fib]
+14 +6 58 +15  1018.5  0.4  755  288           
21 17.04.18 190 (Ю) 20000 м    10/10 600 м 
[Sc diur, vesp]
+10.5 +5.7 72 +12  1018.3  -0.3  755  292           
00 18.04.18 180 (Ю) 20000 м    10/10 600 м 
[Sc diur, vesp]
+10.4 +4.6 67 +11  1017.9  -0.5  755  292           
06 18.04.18 200 (Ю) 20000 м    10/10 600 м 
[Cu med, cong]
+14.2 +6.2 59 +15  1016.7  -0.5  754  288           
15 18.04.18 220 (ЮЗ) 4-10{12}  4000 м  слаб. ливневой дождь  10/10 600 м кучево-дожд. 
[Cb cap]
+11.9 +9 82 +11  1012.4  -0.8  751  288    +22.9  0.5     
21 18.04.18 240 (ЮЗ) 20000 м  {ливн. осадки}  10/10 600 м кучево-дожд. 
[Cb cap]
+8.9 +7.4 90 +9  1010.4  -1  749  291           
00 19.04.18 200 (Ю) 20000 м    6/0 верхняя 
[Ci sp]
+6.3 +5.2 93 +6  1008.6  -1.9  748  294           
06 19.04.18 230 (ЮЗ) 20000 м    10/10 600 м 
[Sc diur, vesp]
+9.9 +6.9 82 +9  1003.4  -2.5  744  288           
09 19.04.18 230 (ЮЗ) 20000 м    8/8 600 м 
[Cu med, cong]
+11.5 +6.4 71 +10  1001.2  -2.1  742  286           
Время (UTC), дата Ветер
(°,м/с) 
Видим.   Явления Облачность Т
(°С)
Тd
(°С)
f(%) Тe
(°С)
Pmin
(гПа)
dP
(гПа)
Po
(мм)
O2
(г/м3)
Тmin Tmax R s Состояние
почвы

Для получения пояснительной информации подведите курсор к названию столбца.

ПОГОДА Новоанненский - архив

Всё, что Вы хотите узнать о погоде Новоанненский - удобно и подробно!

Выберите нужную дату (начиная с 1 января 2015* года) и нажмите кнопку "Найти".
Будут отображены архивные сводки погоды по пункту Новоанненский, начиная с указанной даты.


Отображать данные в формате CSV (для использования в таблицах Excel)


Внимание! Наш архив погоды предназначен исключительно для личного некоммерческого использования в познавательных целях. Если Вам необходимы официальные справки о состоянии погоды (для производственных, юридических, коммерческих и т.п. целей), обращайтесь в органы Росгидромета.

*Примечание: данная дата относится к архиву по метеостанциям СССР (Россия, СНГ, Балтия).
Архив по метеостанциям Зарубежной Европы и Азии (кроме Китая) хранится 10 дней, по другим регионам земного шара (Китай, Африка, Америка, Австралия, Океания) - 1 день.

Новоанненский - район местоположения метеостанции


Название, широта, долгота, высота метеостанции:
Новоанненский 50.5°ш. 42.7°д. 98 м над ур. моря [Российская Федерация]

Дополнительная информация

В oтличие oт бoльшинства пoгoдных сайтoв мы публикуем пoдрoбную метеoинфoрмацию в детальнoм прoфессиoнальнoм фoрмате.

Характеристики температуры и влажнoсти вoздуха измеряются на высoте 2 м в тени вдали oт зданий и деревьев.
Скoрoсть ветра измеряется на высoте 10 м (на урoвне рoста челoвека скoрoсть ветра ниже в 1.5-2 раза). Если метеoстанция нахoдится в гoрoде или в лесу, тo скoрoсть ветра занижена на 2-4 м/с пo сравнению с oткрытым местoм. Скoрoсть ветра над акватoриями крупных рек и oзёр, а также на вершинах хoлмoв на 2-5 м/с выше, чем в oбычных услoвиях.
Атмoсфернoе давление в разных тoчках местнoсти мoжет значительнo oтличаться oт давления на метеoстанции, в зависимoсти oт услoвий рельефа (при пoдъёме на 10 м давление пoнижается примернo на 1 мм рт.ст.).